Location: Miramichi City (Newcastle)
(46.9830°N, 65.5670°W)
Time: 10:52:10
(UTC-03:00)

Iridium 12 - Visible Passes

Search period start: 04 August 2015 00:00
Search period end: 14 August 2015 00:00
Orbit: 776 x 779 km, 86.4° (Epoch: 03 August)

Date Brightness Start Highest point End Pass type
(mag) Time Alt. Az. Time Alt. Az. Time Alt. Az.
04 Aug 7.5 00:17:29 12° WSW 00:21:08 23° WNW 00:25:14 10° NNW visible
04 Aug 6.5 22:03:23 15° SE 22:06:41 28° E 22:11:09 10° NNE visible
04 Aug 6.6 23:43:50 18° SW 23:47:18 39° W 23:52:12 10° N visible
05 Aug 7.2 21:30:18 10° ESE 21:33:26 17° ENE 21:36:46 10° NE visible
05 Aug 5.7 23:10:10 21° SSW 23:13:38 69° W 23:18:52 10° N visible
06 Aug 5.5 22:36:28 20° S 22:40:06 69° E 22:45:19 10° N visible
07 Aug 7.9 00:18:01 10° WSW 00:21:29 17° WNW 00:24:47 10° NNW visible
07 Aug 6.1 22:02:46 15° SSE 22:06:40 39° E 22:11:32 10° NNE visible
07 Aug 7.2 23:43:12 11° SW 23:47:34 29° WNW 23:52:02 10° NNW visible
08 Aug 6.8 21:29:23 10° SE 21:33:21 23° E 21:37:27 10° NNE visible
08 Aug 6.3 23:09:28 14° SSW 23:13:48 49° W 23:18:52 10° N visible
09 Aug 5.5 22:35:43 14° S 22:40:11 85° W 22:45:27 10° N visible
10 Aug 8.2 00:19:38 10° W 00:21:54 12° WNW 00:23:53 10° NW visible
10 Aug 5.7 22:01:55 12° SSE 22:06:42 55° E 22:11:48 10° NNE visible
10 Aug 7.7 23:43:54 10° WSW 23:47:52 21° WNW 23:51:44 10° NNW visible
11 Aug 6.4 21:28:47 10° SE 21:33:18 32° E 21:37:55 10° NNE visible
11 Aug 6.9 23:09:13 10° SW 23:14:00 35° WNW 23:18:46 10° NNW visible
12 Aug 6.0 22:35:09 10° SSW 22:40:18 61° W 22:45:30 10° N visible
13 Aug 5.5 22:01:32 10° S 22:06:45 77° E 22:11:59 10° N visible
13 Aug 8.1 23:45:06 10° WSW 23:48:14 15° WNW 23:51:10 10° NNW visible
